"Datum/tijd (MET/MEZT)";"Model verwachting waterstand (cm/nap)";"verwachting RWS";"waterstand [cm]"
2024-03-25 06:00;1021;1016;1021
2024-03-25 06:10;1021;1016;1021
2024-03-25 06:20;1021;1016;1020
2024-03-25 06:30;1021;1015;1020
2024-03-25 06:40;1021;1015;1021
2024-03-25 06:50;1021;1015;1020
2024-03-25 07:00;1021;1021;1021
2024-03-25 07:10;1021;1021;1019
2024-03-25 07:20;1020;1021;1020
2024-03-25 07:30;1020;1021;1019
2024-03-25 07:40;1020;1021;1019
2024-03-25 07:50;1019;1021;1019
2024-03-25 08:00;1019;1021;1019
2024-03-25 08:10;1019;1020;1019
2024-03-25 08:20;1019;1020;1019
2024-03-25 08:30;1019;1020;1019
2024-03-25 08:40;1019;1020;1019
2024-03-25 08:50;1019;1020;1019
2024-03-25 09:00;1019;1020;1019
2024-03-25 09:10;1019;1020;1019
2024-03-25 09:20;1019;1020;1019
2024-03-25 09:30;1018;1020;1019
2024-03-25 09:40;1018;1020;1018
2024-03-25 09:50;1018;1020;1018
2024-03-25 10:00;1018;1020;1018
2024-03-25 10:10;1018;1020;1018
2024-03-25 10:20;1018;1019;1018
2024-03-25 10:30;1018;1019;1018
2024-03-25 10:40;1018;1019;1018
2024-03-25 10:50;1018;1019;1018
2024-03-25 11:00;1018;1019;1018
2024-03-25 11:10;1018;1019;1018
2024-03-25 11:20;1018;1019;1018
2024-03-25 11:30;1018;1019;1018
2024-03-25 11:40;1018;1019;1018
2024-03-25 11:50;1018;1019;1018
2024-03-25 12:00;1018;1019;1018
2024-03-25 12:10;1018;1019;1018
2024-03-25 12:20;1018;1019;1017
2024-03-25 12:30;1017;1018;1018
2024-03-25 12:40;1017;1018;1018
2024-03-25 12:50;1017;1018;1018
2024-03-25 13:00;1017;1018;1017
2024-03-25 13:10;1017;1018;1017
2024-03-25 13:20;1017;1018;1017
2024-03-25 13:30;1017;1018;1018
2024-03-25 13:40;1018;1018;1017
2024-03-25 13:50;1018;1018;1018
2024-03-25 14:00;1018;1018;1018
2024-03-25 14:10;1018;1018;1018
2024-03-25 14:20;1018;1018;1018
2024-03-25 14:30;1018;1018;1018
2024-03-25 14:40;1019;1017;1018
2024-03-25 14:50;1019;1017;1019
2024-03-25 15:00;1019;1017;1019
2024-03-25 15:10;1019;1017;1017
2024-03-25 15:20;1018;1017;1018
2024-03-25 15:30;1018;1017;1018
2024-03-25 15:40;1018;1017;1019
2024-03-25 15:50;1017;1017;1017
2024-03-25 16:00;1017;1017;1017
2024-03-25 16:10;1017;1017;1018
2024-03-25 16:20;1017;1017;1018
2024-03-25 16:30;1017;1017;1018
2024-03-25 16:40;1017;1017;1018
2024-03-25 16:50;1017;1016;1017
2024-03-25 17:00;1017;1016;1017
2024-03-25 17:10;1017;1016;1017
2024-03-25 17:20;1017;1016;1017
2024-03-25 17:30;1017;1016;1017
2024-03-25 17:40;1017;1016;1017
2024-03-25 17:50;1017;1016;1016
2024-03-25 18:00;1017;1016;1017
2024-03-25 18:10;1017;1016;1016
2024-03-25 18:20;1017;1016;1017
2024-03-25 18:30;1016;1016;1017
2024-03-25 18:40;1016;1016;1017
2024-03-25 18:50;1016;1016;1016
2024-03-25 19:00;1016;1016;1016
2024-03-25 19:10;1016;1015;1017
2024-03-25 19:20;1016;1015;1017
2024-03-25 19:30;1016;1015;1017
2024-03-25 19:40;1017;1015;1016
2024-03-25 19:50;1017;1015;1016
2024-03-25 20:00;1017;1015;1017
2024-03-25 20:10;1017;1015;1016
2024-03-25 20:20;1017;1015;1016
2024-03-25 20:30;1016;1015;1016
2024-03-25 20:40;1016;1015;1016
2024-03-25 20:50;1016;1015;1016
2024-03-25 21:00;1016;1015;1016
2024-03-25 21:10;1016;1015;1016
2024-03-25 21:20;1016;1014;1016
2024-03-25 21:30;1016;1014;1016
2024-03-25 21:40;1016;1014;1016
2024-03-25 21:50;1016;1014;1016
2024-03-25 22:00;1016;1014;1016
2024-03-25 22:10;1016;1014;1016
2024-03-25 22:20;1016;1014;1016
2024-03-25 22:30;1016;1014;1015
2024-03-25 22:40;1016;1014;1016
2024-03-25 22:50;1016;1014;1015
2024-03-25 23:00;1016;1014;1016
2024-03-25 23:10;1016;1014;1016
2024-03-25 23:20;1016;1014;1016
2024-03-25 23:30;1015;1013;1016
2024-03-25 23:40;1015;1013;1017
2024-03-25 23:50;1015;1013;1015
2024-03-26 00:00;1015;1013;1015
2024-03-26 00:10;1015;1013;1015
2024-03-26 00:20;1015;1013;1015
2024-03-26 00:30;1014;1013;1014
2024-03-26 00:40;1014;1013;1015
2024-03-26 00:50;1014;1013;1014
2024-03-26 01:00;1014;1013;1014
2024-03-26 01:10;1014;1013;1014
2024-03-26 01:20;1014;1013;1015
2024-03-26 01:30;1014;1013;1015
2024-03-26 01:40;1015;1012;1015
2024-03-26 01:50;1015;1012;1014
2024-03-26 02:00;1015;1012;1015
2024-03-26 02:10;1015;1012;1015
2024-03-26 02:20;1015;1012;1015
2024-03-26 02:30;1014;1012;1015
2024-03-26 02:40;1014;1012;1014
2024-03-26 02:50;1014;1012;1013
2024-03-26 03:00;1014;1012;1014
2024-03-26 03:10;1014;1012;1014
2024-03-26 03:20;1014;1012;1014
2024-03-26 03:30;1014;1012;1014
2024-03-26 03:40;1013;1012;1013
2024-03-26 03:50;1013;1011;1014
2024-03-26 04:00;1013;1011;1013
2024-03-26 04:10;1013;1011;1013
2024-03-26 04:20;1013;1011;1014
2024-03-26 04:30;1013;1011;1013
2024-03-26 04:40;1013;1011;1013
2024-03-26 04:50;1013;1011;1013
2024-03-26 05:00;1013;1011;1013
2024-03-26 05:10;1013;1011;1013
2024-03-26 05:20;1013;1011;1013
2024-03-26 05:30;1013;1011;1013
2024-03-26 05:40;1013;1011;1013
2024-03-26 05:50;1013;1011;1013
2024-03-26 06:00;1013;1010;1013
2024-03-26 06:10;1013;1010;1013
2024-03-26 06:20;1013;1010;1013
2024-03-26 06:30;1013;1010;1013
2024-03-26 06:40;1013;1010;1013
2024-03-26 06:50;1013;1010;1014
2024-03-26 07:00;1013;1013;1013
2024-03-26 07:10;1013;1013;1013
2024-03-26 07:20;1013;1013;1014
2024-03-26 07:30;1014;1013;1013
2024-03-26 07:40;1014;1013;1013
2024-03-26 07:50;1014;1013;1013
2024-03-26 08:00;1014;1014;1014
2024-03-26 08:10;1014;1014;1013
2024-03-26 08:20;1014;1014;1014
2024-03-26 08:30;1014;1014;1014
2024-03-26 08:40;1013;1014;1012
2024-03-26 08:50;1013;1014;1014
2024-03-26 09:00;1013;1014;1013
2024-03-26 09:10;1013;1014;1013
2024-03-26 09:20;1013;1014;1013
2024-03-26 09:30;1013;1014;1012
2024-03-26 09:40;1013;1014;1013
2024-03-26 09:50;1013;1014;1012
2024-03-26 10:00;1013;1014;1013
2024-03-26 10:10;1013;1014;1013
2024-03-26 10:20;1013;1014;1013
2024-03-26 10:30;1013;1014;1013
2024-03-26 10:40;1013;1014;1011
2024-03-26 10:50;1013;1014;1013
2024-03-26 11:00;1013;1013;1013
2024-03-26 11:10;1013;1013;1013
2024-03-26 11:20;1013;1013;1012
2024-03-26 11:30;1013;1013;1013
2024-03-26 11:40;1013;1013;1013
2024-03-26 11:50;1013;1013;1013
2024-03-26 12:00;1013;1013;1013
2024-03-26 12:10;1013;1013;1013
2024-03-26 12:20;1013;1013;1013
2024-03-26 12:30;1013;1013;1014
2024-03-26 12:40;1013;1013;1013
2024-03-26 12:50;1013;1013;1013
2024-03-26 13:00;1013;1013;1013
2024-03-26 13:10;1013;1013;1013
2024-03-26 13:20;1013;1013;1013
2024-03-26 13:30;1013;1013;1014
2024-03-26 13:40;1013;1013;1013
2024-03-26 13:50;1013;1013;1014
2024-03-26 14:00;1013;1013;1013
2024-03-26 14:10;1013;1013;1013
2024-03-26 14:20;1013;1013;1013
2024-03-26 14:30;1013;1013;1013
2024-03-26 14:40;1013;1013;1013
2024-03-26 14:50;1013;1013;1014
2024-03-26 15:00;1013;1013;1013
2024-03-26 15:10;1013;1013;1014
2024-03-26 15:20;1013;1013;1014
2024-03-26 15:30;1014;1013;1014
2024-03-26 15:40;1014;1013;1013
2024-03-26 15:50;1014;1013;1013
2024-03-26 16:00;1014;1013;1014
2024-03-26 16:10;1014;1013;1013
2024-03-26 16:20;1014;1013;1013
2024-03-26 16:30;1014;1013;1013
2024-03-26 16:40;1013;1012;1014
2024-03-26 16:50;1013;1012;1013
2024-03-26 17:00;1013;1012;1013
2024-03-26 17:10;1013;1012;1014
2024-03-26 17:20;1013;1012;1013
2024-03-26 17:30;1013;1012;1013
2024-03-26 17:40;1013;1012;1013
2024-03-26 17:50;1013;1012;1013
2024-03-26 18:00;1013;1012;1013
2024-03-26 18:10;1013;1012;1013
2024-03-26 18:20;1013;1012;1013
2024-03-26 18:30;1012;1012;1013
2024-03-26 18:40;1012;1012;1012
2024-03-26 18:50;1012;1012;1013
2024-03-26 19:00;1012;1012;1012
2024-03-26 19:10;1012;1012;1012
2024-03-26 19:20;1012;1012;1013
2024-03-26 19:30;1012;1012;1013
2024-03-26 19:40;1012;1012;1012
2024-03-26 19:50;1012;1012;1013
2024-03-26 20:00;1012;1012;1012
2024-03-26 20:10;1012;1012;1012
2024-03-26 20:20;1012;1012;1013
2024-03-26 20:30;1012;1012;1012
2024-03-26 20:40;1012;1012;1012
2024-03-26 20:50;1012;1012;1012
2024-03-26 21:00;1012;1012;1012
2024-03-26 21:10;1012;1012;1012
2024-03-26 21:20;1012;1012;1013
2024-03-26 21:30;1012;1012;1013
2024-03-26 21:40;1012;1012;1013
2024-03-26 21:50;1012;1012;1013
2024-03-26 22:00;1012;1012;1012
2024-03-26 22:10;1012;1012;1013
2024-03-26 22:20;1012;1012;1013
2024-03-26 22:30;1011;1011;1013
2024-03-26 22:40;1011;1011;1013
2024-03-26 22:50;1011;1011;1014
2024-03-26 23:00;1011;1011;1011
2024-03-26 23:10;1011;1011;1013
2024-03-26 23:20;1011;1011;1013
2024-03-26 23:30;1011;1011;1012
2024-03-26 23:40;1012;1011;1012
2024-03-26 23:50;1012;1011;1012
2024-03-27 00:00;1012;1011;1012
2024-03-27 00:10;1012;1011;1012
2024-03-27 00:20;1012;1011;1012
2024-03-27 00:30;1012;1011;1012
2024-03-27 00:40;1012;1011;1012
2024-03-27 00:50;1012;1011;1012
2024-03-27 01:00;1012;1011;1012
2024-03-27 01:10;1012;1011;1011
2024-03-27 01:20;1012;1011;1011
2024-03-27 01:30;1011;1011;1012
2024-03-27 01:40;1011;1011;1012
2024-03-27 01:50;1011;1011;1011
2024-03-27 02:00;1011;1011;1011
2024-03-27 02:10;1011;1011;1012
2024-03-27 02:20;1011;1011;1012
2024-03-27 02:30;1011;1011;1011
2024-03-27 02:40;1011;1011;1012
2024-03-27 02:50;1011;1011;1011
2024-03-27 03:00;1011;1011;1011
2024-03-27 03:10;1011;1011;1011
2024-03-27 03:20;1011;1011;1012
2024-03-27 03:30;1011;1011;1012
2024-03-27 03:40;1011;1011;1012
2024-03-27 03:50;1011;1011;1011
2024-03-27 04:00;1011;1011;1011
2024-03-27 04:10;1011;1010;1011
2024-03-27 04:20;1011;1010;1011
2024-03-27 04:30;1011;1010;1010
2024-03-27 04:40;1011;1010;1010
2024-03-27 04:50;1011;1010;1010
2024-03-27 05:00;1011;1010;1011
2024-03-27 05:10;1011;1010;1011
2024-03-27 05:20;1011;1010;1010
2024-03-27 05:30;1011;1010;1011
2024-03-27 05:40;1011;1010;1011
2024-03-27 05:50;1011;1010;1011
2024-03-27 06:00;1011;1010;1011
2024-03-27 06:10;1011;1010;1010
2024-03-27 06:20;1011;1010;1010
2024-03-27 06:30;1010;1010;1010
2024-03-27 06:40;1010;1010;1010
2024-03-27 06:50;1010;1010;1010
2024-03-27 07:00;1010;1010;1010
2024-03-27 07:10;1010;1010;1010
2024-03-27 07:20;1010;1010;1011
2024-03-27 07:30;1010;1010;1011
2024-03-27 07:40;1011;1010;1011
2024-03-27 07:50;1011;1010;1011
2024-03-27 08:00;1011;1010;1011
2024-03-27 08:10;1011;1010;1012
2024-03-27 08:20;1011;1010;1010
2024-03-27 08:30;1010;1010;1011
2024-03-27 08:40;1010;1010;1011
2024-03-27 08:50;1010;1010;1010
2024-03-27 09:00;1010;1010;1010
2024-03-27 09:10;1010;1010;1011
2024-03-27 09:20;1010;1010;1011
2024-03-27 09:30;1010;1009;1010
2024-03-27 09:40;1010;1009;1010
2024-03-27 09:50;1010;1009;1011
2024-03-27 10:00;1010;1009;1010
2024-03-27 10:10;1010;1009;1010
2024-03-27 10:20;1010;1009;1010
2024-03-27 10:30;1010;1009;1010
2024-03-27 10:40;1010;1009;1010
2024-03-27 10:50;1010;1009;1010
2024-03-27 11:00;1010;1009;1010
2024-03-27 11:10;1010;1009;1010
2024-03-27 11:20;1010;1009;1011
2024-03-27 11:30;1010;1009;1009
2024-03-27 11:40;1010;1009;1010
2024-03-27 11:50;1010;1009;1010
2024-03-27 12:00;1010;1009;1010
2024-03-27 12:10;1010;1009;1010
2024-03-27 12:20;1010;1009;1010
2024-03-27 12:30;1010;1009;1010
2024-03-27 12:40;1010;1009;1011
2024-03-27 12:50;1010;1009;1009
2024-03-27 13:00;1010;1009;1010
2024-03-27 13:10;1010;1009;1010
2024-03-27 13:20;1010;1009;1009
2024-03-27 13:30;1009;1009;1009
2024-03-27 13:40;1009;1009;1010
2024-03-27 13:50;1009;1009;1009
2024-03-27 14:00;1009;1009;1009
2024-03-27 14:10;1009;1009;1008
2024-03-27 14:20;1009;1008;1009
2024-03-27 14:30;1009;1008;1009
2024-03-27 14:40;1009;1008;1009
2024-03-27 14:50;1009;1008;1008
2024-03-27 15:00;1009;1008;1009
2024-03-27 15:10;1009;1008;1009
2024-03-27 15:20;1009;1008;1010
2024-03-27 15:30;1009;1008;
2024-03-27 15:40;1009;1008;1009
2024-03-27 15:50;1009;1008;1009
2024-03-27 16:00;1009;1008;1009
2024-03-27 16:10;1009;1008;1009
2024-03-27 16:20;1009;1008;1009
2024-03-27 16:30;1009;1008;1009
2024-03-27 16:40;1009;1008;1010
2024-03-27 16:50;1009;1008;1009
2024-03-27 17:00;1009;1008;1009
2024-03-27 17:10;1009;1008;1009
2024-03-27 17:20;1009;1008;1009
2024-03-27 17:30;1009;1008;1009
2024-03-27 17:40;1010;1008;1009
2024-03-27 17:50;1010;1008;1009
2024-03-27 18:00;1010;1008;1010
2024-03-27 18:10;1010;1008;1008
2024-03-27 18:20;1009;1008;1009
2024-03-27 18:30;1009;1008;1008
2024-03-27 18:40;1009;1008;1008
2024-03-27 18:50;1008;1008;1008
2024-03-27 19:00;1008;1008;1008
2024-03-27 19:10;1008;1007;1008
2024-03-27 19:20;1008;1007;1008
2024-03-27 19:30;1008;1007;1008
2024-03-27 19:40;1008;1007;1008
2024-03-27 19:50;1008;1007;1008
2024-03-27 20:00;1008;1007;1008
2024-03-27 20:10;1008;1007;1008
2024-03-27 20:20;1008;1007;1008
2024-03-27 20:30;1009;1007;1009
2024-03-27 20:40;1009;1007;1008
2024-03-27 20:50;1009;1007;1009
2024-03-27 21:00;1009;1007;1009
2024-03-27 21:10;1009;1007;1009
2024-03-27 21:20;1009;1007;1009
2024-03-27 21:30;1009;1007;1009
2024-03-27 21:40;1008;1007;1007
2024-03-27 21:50;1008;1007;1008
2024-03-27 22:00;1008;1007;1008
2024-03-27 22:10;1008;1007;1008
2024-03-27 22:20;1008;1007;1008
2024-03-27 22:30;1007;1007;1008
2024-03-27 22:40;1007;1007;1008
2024-03-27 22:50;1007;1007;1007
2024-03-27 23:00;1007;1007;1007
2024-03-27 23:10;1007;1007;1007
2024-03-27 23:20;1007;1007;1007
2024-03-27 23:30;1007;1007;1007
2024-03-27 23:40;1007;1007;1008
2024-03-27 23:50;1007;1006;1007
2024-03-28 00:00;1007;1006;1007
2024-03-28 00:10;1007;1006;1007
2024-03-28 00:20;1007;1006;1007
2024-03-28 00:30;1007;1006;1006
2024-03-28 00:40;1007;1006;1006
2024-03-28 00:50;1007;1006;1007
2024-03-28 01:00;1007;1006;1007
2024-03-28 01:10;1007;1006;1007
2024-03-28 01:20;1007;1006;1006
2024-03-28 01:30;1006;1006;1006
2024-03-28 01:40;1006;1006;1006
2024-03-28 01:50;1006;1006;1006
2024-03-28 02:00;1006;1006;1006
2024-03-28 02:10;1006;1006;1006
2024-03-28 02:20;1006;1006;1006
2024-03-28 02:30;1006;1006;1005
2024-03-28 02:40;1005;1006;1006
2024-03-28 02:50;1005;1006;1006
2024-03-28 03:00;1005;1006;1005
2024-03-28 03:10;1005;1006;1006
2024-03-28 03:20;1006;1006;1006
2024-03-28 03:30;1006;1006;1006
2024-03-28 03:40;1006;1006;1006
2024-03-28 03:50;1007;1006;1006
2024-03-28 04:00;1007;1006;1007
2024-03-28 04:10;1007;1006;1006
2024-03-28 04:20;1007;1006;1006
2024-03-28 04:30;1006;1006;1005
2024-03-28 04:40;1006;1005;1007
2024-03-28 04:50;1006;1005;1006
2024-03-28 05:00;1006;1005;1006
2024-03-28 05:10;1006;1005;1006
2024-03-28 05:20;1006;1005;1006
2024-03-28 05:30;1006;1005;1005
2024-03-28 05:40;1005;1005;1005
2024-03-28 05:50;1005;1005;1006
2024-03-28 06:00;1005;1005;1005
2024-03-28 06:10;1005;1005;1005
2024-03-28 06:20;1005;1005;1005
2024-03-28 06:30;1005;1005;1005
2024-03-28 06:40;1005;1005;1005
2024-03-28 06:50;1005;1005;1005
2024-03-28 07:00;1005;1005;1005
2024-03-28 07:10;1005;1005;1005
2024-03-28 07:20;1005;1005;1005
2024-03-28 07:30;1005;1005;1004
2024-03-28 07:40;1004;1005;1004
2024-03-28 07:50;1004;1005;1005
2024-03-28 08:00;1004;1005;1004
2024-03-28 08:10;1004;1005;1005
2024-03-28 08:20;1004;1004;1004
2024-03-28 08:30;1005;1004;1004
2024-03-28 08:40;1005;1004;1004
2024-03-28 08:50;1005;1004;1004
2024-03-28 09:00;1005;1004;1005
2024-03-28 09:10;1005;1004;1004
2024-03-28 09:20;1005;1004;1004
2024-03-28 09:30;1005;1004;1004
2024-03-28 09:40;1004;1004;1005
2024-03-28 09:50;1004;1004;1005
2024-03-28 10:00;1004;1004;1004
2024-03-28 10:10;1004;1004;1004
2024-03-28 10:20;1004;1004;1005
2024-03-28 10:30;1005;1004;1005
2024-03-28 10:40;1005;1003;
2024-03-28 10:50;1005;1003;
2024-03-28 11:00;1005;1003;1005
2024-03-28 11:10;1005;1003;1006
2024-03-28 11:20;1005;1003;1003
2024-03-28 11:30;1005;1003;1004
2024-03-28 11:40;1004;1003;1004
2024-03-28 11:50;1004;1003;1004
2024-03-28 12:00;1004;1003;1004
2024-03-28 12:10;1004;1003;1004
2024-03-28 12:20;1004;1003;1004
2024-03-28 12:30;1004;1003;1004
2024-03-28 12:40;1004;1003;1004
2024-03-28 12:50;1004;1003;1004
2024-03-28 13:00;1004;1002;1004
2024-03-28 13:10;1004;1002;1004
2024-03-28 13:20;1004;1002;1003
2024-03-28 13:30;1003;1002;1004
2024-03-28 13:40;1003;1002;1003
2024-03-28 13:50;1003;1002;1003
2024-03-28 14:00;1003;1002;1003
2024-03-28 14:10;1003;1002;1003
2024-03-28 14:20;1003;1002;1003
2024-03-28 14:30;1003;1002;1003
2024-03-28 14:40;1003;1002;1004
2024-03-28 14:50;1003;1002;1003
2024-03-28 15:00;1003;1002;1003
2024-03-28 15:10;1003;1002;1003
2024-03-28 15:20;1003;1002;1003
2024-03-28 15:30;1003;1001;1003
2024-03-28 15:40;1004;1001;1003
2024-03-28 15:50;1004;1001;1003
2024-03-28 16:00;1004;1001;1004
2024-03-28 16:10;1004;1001;1004
2024-03-28 16:20;1003;1001;1004
2024-03-28 16:30;1003;1001;1004
2024-03-28 16:40;1003;1001;1003
2024-03-28 16:50;1002;1001;1004
2024-03-28 17:00;1002;1001;1002
2024-03-28 17:10;1002;1001;1003
2024-03-28 17:20;1002;1001;1003
2024-03-28 17:30;1002;1001;1003
2024-03-28 17:40;1003;1001;1003
2024-03-28 17:50;1003;1000;1003
2024-03-28 18:00;1003;1000;1003
2024-03-28 18:10;1003;1000;1003
2024-03-28 18:20;1003;1000;1004
2024-03-28 18:30;1003;1000;1001
2024-03-28 18:40;1003;1000;1002
2024-03-28 18:50;1003;1000;1003
2024-03-28 19:00;1003;1000;1003
2024-03-28 19:10;1003;1000;1002
2024-03-28 19:20;1003;1000;1002
2024-03-28 19:30;1002;1000;1002
2024-03-28 19:40;1002;1000;1002
2024-03-28 19:50;1002;1000;1002
2024-03-28 20:00;1002;1000;1002
2024-03-28 20:10;1002;1000;1002
2024-03-28 20:20;1002;999;1002
2024-03-28 20:30;1001;999;1002
2024-03-28 20:40;1001;999;1002
2024-03-28 20:50;1001;999;1002
2024-03-28 21:00;1001;999;1001
2024-03-28 21:10;1001;999;1002
2024-03-28 21:20;1001;999;1001
2024-03-28 21:30;1001;999;1002
2024-03-28 21:40;1001;999;1001
2024-03-28 21:50;1001;999;1001
2024-03-28 22:00;1001;999;1001
2024-03-28 22:10;1001;999;1001
2024-03-28 22:20;1001;999;1000
2024-03-28 22:30;1001;999;1001
2024-03-28 22:40;1000;998;1000
2024-03-28 22:50;1000;998;1001
2024-03-28 23:00;1000;998;1000
2024-03-28 23:10;1000;998;1000
2024-03-28 23:20;1000;998;1000
2024-03-28 23:30;1000;998;1000
2024-03-28 23:40;1000;998;1000
2024-03-28 23:50;1000;998;1000
2024-03-29 00:00;1000;998;1000
2024-03-29 00:10;1000;998;1000
2024-03-29 00:20;1000;998;1000
2024-03-29 00:30;1000;998;1000
2024-03-29 00:40;1000;998;1000
2024-03-29 00:50;1000;998;1000
2024-03-29 01:00;1000;998;1000
2024-03-29 01:10;1000;997;1000
2024-03-29 01:20;1000;997;1001
2024-03-29 01:30;1000;997;998
2024-03-29 01:40;1000;997;999
2024-03-29 01:50;1000;997;1000
2024-03-29 02:00;1000;997;1000
2024-03-29 02:10;1000;997;999
2024-03-29 02:20;1000;997;999
2024-03-29 02:30;1000;997;1000
2024-03-29 02:40;1000;997;1000
2024-03-29 02:50;1000;997;1000
2024-03-29 03:00;1000;997;1000
2024-03-29 03:10;1000;997;998
2024-03-29 03:20;999;997;998
2024-03-29 03:30;999;996;999
2024-03-29 03:40;999;996;998
2024-03-29 03:50;998;996;998
2024-03-29 04:00;998;996;998
2024-03-29 04:10;998;996;999
2024-03-29 04:20;998;996;998
2024-03-29 04:30;998;996;998
2024-03-29 04:40;998;996;998
2024-03-29 04:50;998;996;998
2024-03-29 05:00;998;996;998
2024-03-29 05:10;998;996;998
2024-03-29 05:20;998;996;997
2024-03-29 05:30;998;996;998
2024-03-29 05:40;998;996;998
2024-03-29 05:50;998;995;998
2024-03-29 06:00;998;995;998
2024-03-29 06:10;998;995;997
2024-03-29 06:20;998;995;996
2024-03-29 06:30;997;995;997
2024-03-29 06:40;997;995;997
2024-03-29 06:50;997;995;997
2024-03-29 07:00;997;997;997
2024-03-29 07:10;997;997;996
2024-03-29 07:20;997;997;997
2024-03-29 07:30;997;997;997
2024-03-29 07:40;997;997;998
2024-03-29 07:50;997;997;997
2024-03-29 08:00;997;997;997
2024-03-29 08:10;997;997;997
2024-03-29 08:20;996;997;997
2024-03-29 08:30;996;997;997
2024-03-29 08:40;996;997;997
2024-03-29 08:50;995;997;998
2024-03-29 09:00;995;997;995
2024-03-29 09:10;995;997;996
2024-03-29 09:20;995;997;996
2024-03-29 09:30;995;997;996
2024-03-29 09:40;996;997;996
2024-03-29 09:50;996;997;996
2024-03-29 10:00;996;997;996
2024-03-29 10:10;996;997;996
2024-03-29 10:20;996;997;996
2024-03-29 10:30;995;997;996
2024-03-29 10:40;995;997;996
2024-03-29 10:50;995;997;995
2024-03-29 11:00;995;997;995
2024-03-29 11:10;995;997;995
2024-03-29 11:20;995;997;995
2024-03-29 11:30;995;997;995
2024-03-29 11:40;995;997;995
2024-03-29 11:50;995;997;995
2024-03-29 12:00;995;997;995
2024-03-29 12:10;995;997;995
2024-03-29 12:20;995;997;995
2024-03-29 12:30;995;997;995
2024-03-29 12:40;995;997;995
2024-03-29 12:50;995;997;995
2024-03-29 13:00;995;996;995
2024-03-29 13:10;995;996;994
2024-03-29 13:20;995;996;995
2024-03-29 13:30;995;996;994
2024-03-29 13:40;995;996;995
2024-03-29 13:50;995;996;994
2024-03-29 14:00;995;996;995
2024-03-29 14:10;995;996;995
2024-03-29 14:20;995;996;995
2024-03-29 14:30;995;996;994
2024-03-29 14:40;995;996;994
2024-03-29 14:50;995;996;995
2024-03-29 15:00;995;996;995
2024-03-29 15:10;995;996;995
2024-03-29 15:20;995;996;994
2024-03-29 15:30;994;996;994
2024-03-29 15:40;994;996;995
2024-03-29 15:50;994;996;994
2024-03-29 16:00;994;996;994
2024-03-29 16:10;994;996;994
2024-03-29 16:20;994;996;995
2024-03-29 16:30;993;996;994
2024-03-29 16:40;993;996;994
2024-03-29 16:50;993;996;994
2024-03-29 17:00;993;996;993
2024-03-29 17:10;993;996;993
2024-03-29 17:20;993;996;993
2024-03-29 17:30;993;996;993
2024-03-29 17:40;993;996;992
2024-03-29 17:50;993;996;993
2024-03-29 18:00;993;996;993
2024-03-29 18:10;993;996;992
2024-03-29 18:20;993;996;992
2024-03-29 18:30;993;996;993
2024-03-29 18:40;993;996;992
2024-03-29 18:50;993;996;993
2024-03-29 19:00;993;996;993
2024-03-29 19:10;993;996;993
2024-03-29 19:20;993;996;992
2024-03-29 19:30;992;996;992
2024-03-29 19:40;992;996;992
2024-03-29 19:50;992;996;991
2024-03-29 20:00;992;996;992
2024-03-29 20:10;992;996;992
2024-03-29 20:20;992;996;992
2024-03-29 20:30;992;996;992
2024-03-29 20:40;992;996;992
2024-03-29 20:50;992;996;991
2024-03-29 21:00;992;996;992
2024-03-29 21:10;992;996;992
2024-03-29 21:20;992;996;991
2024-03-29 21:30;991;996;991
2024-03-29 21:40;991;996;991
2024-03-29 21:50;991;996;991
2024-03-29 22:00;991;996;991
2024-03-29 22:10;991;996;992
2024-03-29 22:20;991;996;992
2024-03-29 22:30;991;996;990
2024-03-29 22:40;992;996;991
2024-03-29 22:50;992;996;992
2024-03-29 23:00;992;996;992
2024-03-29 23:10;992;996;991
2024-03-29 23:20;992;996;991
2024-03-29 23:30;991;996;992
2024-03-29 23:40;991;996;990
2024-03-29 23:50;991;996;991
2024-03-30 00:00;991;996;991
2024-03-30 00:10;991;996;990
2024-03-30 00:20;991;996;990
2024-03-30 00:30;990;996;990
2024-03-30 00:40;990;996;990
2024-03-30 00:50;990;996;990
2024-03-30 01:00;990;996;990
2024-03-30 01:10;990;995;990
2024-03-30 01:20;990;995;990
2024-03-30 01:30;989;995;990
2024-03-30 01:40;989;995;990
2024-03-30 01:50;989;995;989
2024-03-30 02:00;989;995;989
2024-03-30 02:10;989;995;990
2024-03-30 02:20;989;995;989
2024-03-30 02:30;989;995;989
2024-03-30 02:40;989;995;989
2024-03-30 02:50;989;995;990
2024-03-30 03:00;989;995;989
2024-03-30 03:10;989;995;990
2024-03-30 03:20;989;995;989
2024-03-30 03:30;989;995;989
2024-03-30 03:40;989;995;989
2024-03-30 03:50;989;995;989
2024-03-30 04:00;989;995;989
2024-03-30 04:10;989;995;989
2024-03-30 04:20;989;995;989
2024-03-30 04:30;989;995;989
2024-03-30 04:40;988;995;988
2024-03-30 04:50;988;995;988
2024-03-30 05:00;988;995;988
2024-03-30 05:10;988;995;988
2024-03-30 05:20;988;995;988
2024-03-30 05:30;988;995;988
2024-03-30 05:40;988;995;988
2024-03-30 05:50;988;995;988
2024-03-30 06:00;988;995;988
2024-03-30 06:10;988;995;988
2024-03-30 06:20;988;995;988
2024-03-30 06:30;988;995;988
2024-03-30 06:40;988;995;988
2024-03-30 06:50;988;995;988
2024-03-30 07:00;988;988;988
2024-03-30 07:10;988;988;988
2024-03-30 07:20;988;988;989
2024-03-30 07:30;988;988;986
2024-03-30 07:40;987;988;987
2024-03-30 07:50;987;988;987
2024-03-30 08:00;987;988;987
2024-03-30 08:10;987;988;988
2024-03-30 08:20;987;988;987
2024-03-30 08:30;987;988;987
2024-03-30 08:40;987;988;987
2024-03-30 08:50;987;988;988
2024-03-30 09:00;987;988;987
2024-03-30 09:10;987;988;988
2024-03-30 09:20;987;988;988
2024-03-30 09:30;988;988;988